Year,Month,Day,Hour,Minute,Value (Times are PST for temperature in C)
2019,11,01,00,00,4.50
2019,11,01,00,01,4.50
2019,11,01,00,02,4.50
2019,11,01,00,03,4.50
2019,11,01,00,04,4.50
2019,11,01,00,05,4.50
2019,11,01,00,06,4.50
2019,11,01,00,07,4.60
2019,11,01,00,08,4.60
2019,11,01,00,09,4.60
2019,11,01,00,10,4.70
2019,11,01,00,11,4.70
2019,11,01,00,12,4.70
2019,11,01,00,13,4.70
2019,11,01,00,14,4.80
2019,11,01,00,15,4.80
2019,11,01,00,16,4.80
2019,11,01,00,17,4.80
2019,11,01,00,18,4.90
2019,11,01,00,19,4.90
2019,11,01,00,20,4.90
2019,11,01,00,21,4.90
2019,11,01,00,22,4.90
2019,11,01,00,23,4.90
2019,11,01,00,24,5.00
2019,11,01,00,25,5.00
2019,11,01,00,26,5.00
2019,11,01,00,27,5.00
2019,11,01,00,28,5.00
2019,11,01,00,29,5.10
2019,11,01,00,30,5.10
2019,11,01,00,31,5.10
2019,11,01,00,32,5.10
2019,11,01,00,33,5.10
2019,11,01,00,34,5.10
2019,11,01,00,35,5.20
2019,11,01,00,36,5.20
2019,11,01,00,37,5.20
2019,11,01,00,38,5.20
2019,11,01,00,39,5.20
2019,11,01,00,40,5.20
2019,11,01,00,41,5.20
2019,11,01,00,42,5.20
2019,11,01,00,43,5.20
2019,11,01,00,44,5.20
2019,11,01,00,45,5.20
2019,11,01,00,46,5.20
2019,11,01,00,47,5.20
2019,11,01,00,48,5.20
2019,11,01,00,49,5.20
2019,11,01,00,50,5.20
2019,11,01,00,51,5.20
2019,11,01,00,52,5.20
2019,11,01,00,53,5.20
2019,11,01,00,54,5.20
2019,11,01,00,55,5.20
2019,11,01,00,56,5.10
2019,11,01,00,57,5.10
2019,11,01,00,58,5.10
2019,11,01,00,59,5.10
2019,11,01,01,00,5.10
2019,11,01,01,01,5.00
2019,11,01,01,02,5.00
2019,11,01,01,03,5.00
2019,11,01,01,04,4.90
2019,11,01,01,05,4.90
2019,11,01,01,06,4.90
2019,11,01,01,07,4.90
2019,11,01,01,08,4.90
2019,11,01,01,09,4.80
2019,11,01,01,10,4.80
2019,11,01,01,11,4.80
2019,11,01,01,12,4.80
2019,11,01,01,13,4.80
2019,11,01,01,14,4.80
2019,11,01,01,15,4.80
2019,11,01,01,16,4.80
2019,11,01,01,17,4.80
2019,11,01,01,18,4.80
2019,11,01,01,19,4.80
2019,11,01,01,20,4.80
2019,11,01,01,21,4.80
2019,11,01,01,22,4.70
2019,11,01,01,23,4.70
2019,11,01,01,24,4.70
2019,11,01,01,25,4.60
2019,11,01,01,26,4.60
2019,11,01,01,27,4.60
2019,11,01,01,28,4.50
2019,11,01,01,29,4.50
2019,11,01,01,30,4.40
2019,11,01,01,31,4.40
2019,11,01,01,32,4.40
2019,11,01,01,33,4.30
2019,11,01,01,34,4.30
2019,11,01,01,35,4.30
2019,11,01,01,36,4.30
2019,11,01,01,37,4.20
2019,11,01,01,38,4.20
2019,11,01,01,39,4.20
2019,11,01,01,40,4.20
2019,11,01,01,41,4.20
2019,11,01,01,42,4.10
2019,11,01,01,43,4.10
2019,11,01,01,44,4.10
2019,11,01,01,45,4.10
2019,11,01,01,46,4.10
2019,11,01,01,47,4.00
2019,11,01,01,48,4.00
2019,11,01,01,49,4.00
2019,11,01,01,50,3.90
2019,11,01,01,51,3.90
2019,11,01,01,52,3.90
2019,11,01,01,53,3.90
2019,11,01,01,54,3.90
2019,11,01,01,55,3.80
2019,11,01,01,56,3.80
2019,11,01,01,57,3.90
2019,11,01,01,58,3.80
2019,11,01,01,59,3.80
2019,11,01,02,00,3.80
2019,11,01,02,01,3.80
2019,11,01,02,02,3.80
2019,11,01,02,03,3.80
2019,11,01,02,04,3.80
2019,11,01,02,05,3.90
2019,11,01,02,06,3.90
2019,11,01,02,07,3.90
2019,11,01,02,08,4.00
2019,11,01,02,09,4.10
2019,11,01,02,10,4.20
2019,11,01,02,11,4.20
2019,11,01,02,12,4.30
2019,11,01,02,13,4.30
2019,11,01,02,14,4.40
2019,11,01,02,15,4.40
2019,11,01,02,16,4.50
2019,11,01,02,17,4.60
2019,11,01,02,18,4.60
2019,11,01,02,19,4.60
2019,11,01,02,20,4.60
2019,11,01,02,21,4.60
2019,11,01,02,22,4.60
2019,11,01,02,23,4.60
2019,11,01,02,24,4.60
2019,11,01,02,25,4.70
2019,11,01,02,26,4.70
2019,11,01,02,27,4.70
2019,11,01,02,28,4.70
2019,11,01,02,29,4.70
2019,11,01,02,30,4.70
2019,11,01,02,31,4.70
2019,11,01,02,32,4.70
2019,11,01,02,33,4.70
2019,11,01,02,34,4.70
2019,11,01,02,35,4.70
2019,11,01,02,36,4.70
2019,11,01,09,23,6.40
2019,11,01,09,24,6.40
2019,11,01,09,25,6.40
2019,11,01,09,26,6.40
2019,11,01,09,27,6.50
2019,11,01,09,28,6.50
2019,11,01,09,29,6.50
2019,11,01,09,30,6.50
2019,11,01,09,31,6.50
2019,11,01,09,32,6.50
2019,11,01,09,33,6.60
2019,11,01,09,34,6.60
2019,11,01,09,35,6.60
2019,11,01,09,36,6.60
2019,11,01,09,37,6.60
2019,11,01,09,38,6.60
2019,11,01,09,39,6.70
2019,11,01,09,40,6.70
2019,11,01,09,41,6.70
2019,11,01,09,42,6.70
2019,11,01,09,43,6.70
2019,11,01,09,44,6.70
2019,11,01,09,45,6.80
2019,11,01,09,46,6.80
2019,11,01,09,47,6.80
2019,11,01,09,48,6.80
2019,11,01,09,49,6.90
2019,11,01,09,50,6.90
2019,11,01,09,51,6.90
2019,11,01,09,52,7.00
2019,11,01,09,53,7.10
2019,11,01,09,54,7.10
2019,11,01,09,55,7.20
2019,11,01,09,56,7.20
2019,11,01,09,57,7.20
2019,11,01,09,58,7.30
2019,11,01,09,59,7.30
2019,11,01,10,00,7.30
2019,11,01,10,01,7.30
2019,11,01,10,02,7.40
2019,11,01,10,03,7.40
2019,11,01,10,04,7.40
2019,11,01,10,05,7.40
2019,11,01,10,06,7.50
2019,11,01,10,07,7.50
2019,11,01,10,08,7.50
2019,11,01,10,09,7.60
2019,11,01,10,10,7.60
2019,11,01,10,11,7.60
2019,11,01,10,12,7.60
2019,11,01,10,13,7.60
2019,11,01,10,14,7.60
2019,11,01,10,15,7.60
2019,11,01,10,16,7.70
2019,11,01,10,17,7.70
2019,11,01,10,18,7.70
2019,11,01,10,19,7.70
2019,11,01,10,20,7.70
2019,11,01,10,21,7.70
2019,11,01,10,22,7.70
2019,11,01,10,23,7.70
2019,11,01,10,24,7.70
2019,11,01,10,25,7.70
2019,11,01,10,26,7.70
2019,11,01,10,27,7.80
2019,11,01,10,28,7.80
2019,11,01,10,29,7.80
2019,11,01,10,30,7.80
2019,11,01,10,31,7.80
2019,11,01,10,32,7.80
2019,11,01,10,33,7.80
2019,11,01,10,34,7.80
2019,11,01,10,35,7.80
2019,11,01,10,36,7.80
2019,11,01,10,37,7.80
2019,11,01,10,38,7.80
2019,11,01,10,39,7.90
2019,11,01,10,40,7.90
2019,11,01,10,41,7.90
2019,11,01,10,42,7.90
2019,11,01,10,43,7.90
2019,11,01,10,44,7.90
2019,11,01,10,45,7.90
2019,11,01,10,46,7.90
2019,11,01,10,47,7.90
2019,11,01,10,48,7.90
2019,11,01,10,49,7.90
2019,11,01,10,50,7.90
2019,11,01,10,51,7.90
2019,11,01,10,52,7.90
2019,11,01,10,53,7.90
2019,11,01,10,54,7.90
2019,11,01,10,55,7.90
2019,11,01,10,56,7.90
2019,11,01,10,57,7.90
2019,11,01,10,58,7.90
2019,11,01,10,59,7.90
2019,11,01,11,00,7.90
2019,11,01,11,01,7.90
2019,11,01,11,02,8.00
2019,11,01,11,03,8.00
2019,11,01,11,04,8.00
2019,11,01,11,05,8.00
2019,11,01,11,06,8.00
2019,11,01,11,07,8.00
2019,11,01,11,08,8.00
2019,11,01,11,09,8.00
2019,11,01,11,10,8.00
2019,11,01,11,11,8.00
2019,11,01,11,12,8.00
2019,11,01,11,13,8.00
2019,11,01,11,14,8.00
2019,11,01,11,15,8.00
2019,11,01,11,16,8.00
2019,11,01,11,17,8.00
2019,11,01,11,18,8.10
2019,11,01,11,19,8.10
2019,11,01,11,20,8.10
2019,11,01,11,21,8.10
2019,11,01,11,22,8.10
2019,11,01,11,23,8.10
2019,11,01,11,24,8.10
2019,11,01,11,25,8.20
2019,11,01,11,26,8.10
2019,11,01,11,27,8.20
2019,11,01,11,28,8.20
2019,11,01,11,29,8.20
2019,11,01,11,30,8.20
2019,11,01,11,31,8.30
2019,11,01,11,32,8.30
2019,11,01,11,33,8.30
2019,11,01,11,34,8.30
2019,11,01,11,35,8.40
2019,11,01,11,36,8.40
2019,11,01,11,37,8.50
2019,11,01,11,38,8.50
2019,11,01,11,39,8.60
2019,11,01,11,40,8.60
2019,11,01,11,41,8.60
2019,11,01,11,42,8.70
2019,11,01,11,43,8.70
2019,11,01,11,44,8.70
2019,11,01,11,45,8.70
2019,11,01,11,46,8.70
2019,11,01,11,47,8.80
2019,11,01,11,48,8.80
2019,11,01,11,49,8.80
2019,11,01,11,50,8.80
2019,11,01,11,51,8.70
2019,11,01,11,52,8.70
2019,11,01,11,53,8.70
2019,11,01,11,54,8.70
2019,11,01,11,55,8.70
2019,11,01,11,56,8.70
2019,11,01,11,57,8.70
2019,11,01,11,58,8.70
2019,11,01,11,59,8.70
2019,11,01,12,00,8.70
2019,11,01,12,01,8.70
2019,11,01,12,02,8.70
2019,11,01,12,03,8.70
2019,11,01,12,04,8.80
2019,11,01,12,05,8.80
2019,11,01,12,06,8.80
2019,11,01,12,07,8.80
2019,11,01,12,08,8.80
2019,11,01,12,09,8.80
2019,11,01,12,10,8.90
2019,11,01,12,11,8.90
2019,11,01,12,12,9.00
2019,11,01,12,13,9.00
2019,11,01,12,14,9.10
2019,11,01,12,15,9.10
2019,11,01,12,16,9.10
2019,11,01,12,17,9.10
2019,11,01,12,18,9.10
2019,11,01,12,19,9.10
2019,11,01,12,20,9.10
2019,11,01,12,21,9.10
2019,11,01,12,22,9.10
2019,11,01,12,23,9.10
2019,11,01,12,24,9.10
2019,11,01,12,25,9.10
2019,11,01,12,26,9.10
2019,11,01,12,27,9.10
2019,11,01,12,28,9.10
2019,11,01,12,29,9.10
2019,11,01,12,30,9.10
2019,11,01,12,31,9.10
2019,11,01,12,32,9.10
2019,11,01,12,33,9.10
2019,11,01,12,34,9.10
2019,11,01,12,35,9.10
2019,11,01,12,36,9.10
2019,11,01,12,37,9.10
2019,11,01,12,38,9.10
2019,11,01,12,39,9.00
2019,11,01,12,40,9.10
2019,11,01,12,41,9.00
2019,11,01,12,42,9.00
2019,11,01,12,43,9.00
2019,11,01,12,44,9.00
2019,11,01,12,45,9.00
2019,11,01,12,46,9.00
2019,11,01,12,47,9.00
2019,11,01,12,48,9.00
2019,11,01,12,49,9.00
2019,11,01,12,50,9.00
2019,11,01,12,51,9.00
2019,11,01,12,52,9.10
2019,11,01,12,53,9.10
2019,11,01,12,54,9.10
2019,11,01,12,55,9.20
2019,11,01,12,56,9.20
2019,11,01,12,57,9.20
2019,11,01,12,58,9.20
2019,11,01,12,59,9.20
2019,11,01,13,00,9.20
2019,11,01,13,01,9.20
2019,11,01,13,02,9.20
2019,11,01,13,03,9.20
2019,11,01,13,04,9.30
2019,11,01,13,05,9.30
2019,11,01,13,06,9.30
2019,11,01,13,07,9.30
2019,11,01,13,08,9.30
2019,11,01,13,09,9.30
2019,11,01,13,10,9.30
2019,11,01,13,11,9.30
2019,11,01,13,12,9.40
2019,11,01,13,13,9.40
2019,11,01,13,14,9.40
2019,11,01,13,15,9.40
2019,11,01,13,16,9.40
2019,11,01,13,17,9.40
2019,11,01,13,18,9.40
2019,11,01,13,19,9.40
2019,11,01,13,20,9.50
2019,11,01,13,21,9.50
2019,11,01,13,22,9.60
2019,11,01,13,23,9.60
2019,11,01,13,24,9.70
2019,11,01,13,25,9.70
2019,11,01,13,26,9.80
2019,11,01,13,27,9.90
2019,11,01,13,28,9.90
2019,11,01,13,29,10.00
2019,11,01,13,30,10.00
2019,11,01,13,31,10.10
2019,11,01,13,32,10.10
2019,11,01,13,33,10.10
2019,11,01,13,34,10.20
2019,11,01,13,35,10.20
2019,11,01,13,36,10.20
2019,11,01,13,37,10.20
2019,11,01,13,38,10.30
2019,11,01,13,39,10.30
2019,11,01,13,40,10.30
2019,11,01,13,41,10.40
2019,11,01,13,42,10.40
2019,11,01,13,43,10.40
2019,11,01,13,44,10.50
2019,11,01,13,45,10.50
2019,11,01,13,46,10.50
2019,11,01,13,47,10.50
2019,11,01,13,48,10.50
2019,11,01,13,49,10.50
2019,11,01,13,50,10.50
2019,11,01,13,51,10.50
2019,11,01,13,52,10.50
2019,11,01,13,53,10.40
2019,11,01,13,54,10.50
2019,11,01,13,55,10.50
2019,11,01,13,56,10.50
2019,11,01,13,57,10.50
2019,11,01,13,58,10.50
2019,11,01,13,59,10.50
2019,11,01,14,00,10.50
2019,11,01,14,01,10.60
2019,11,01,14,02,10.60
2019,11,01,14,03,10.60
2019,11,01,14,04,10.60
2019,11,01,14,05,10.70
2019,11,01,14,06,10.70
2019,11,01,14,07,10.70
2019,11,01,14,08,10.80
2019,11,01,14,09,10.80
2019,11,01,14,10,10.80
2019,11,01,14,11,10.80
2019,11,01,14,12,10.90
2019,11,01,14,13,10.90
2019,11,01,14,14,10.90
2019,11,01,14,15,11.00
2019,11,01,14,16,11.10
2019,11,01,14,17,11.10
2019,11,01,14,18,11.10
2019,11,01,14,19,11.20
2019,11,01,14,20,11.20
2019,11,01,14,21,11.20
2019,11,01,14,22,11.20
2019,11,01,14,23,11.20
2019,11,01,14,24,11.30
2019,11,01,14,25,11.30
2019,11,01,14,26,11.30
2019,11,01,14,27,11.30
2019,11,01,14,28,11.30
2019,11,01,14,29,11.30
2019,11,01,14,30,11.30
2019,11,01,14,31,11.20
2019,11,01,14,32,11.20
2019,11,01,14,33,11.20
2019,11,01,14,34,11.20
2019,11,01,14,35,11.20
2019,11,01,14,36,11.20
2019,11,01,14,37,11.20
2019,11,01,14,38,11.20
2019,11,01,14,39,11.20
2019,11,01,14,40,11.20
2019,11,01,14,41,11.10
2019,11,01,14,42,11.10
2019,11,01,14,43,11.10
2019,11,01,14,44,11.10
2019,11,01,14,45,11.10
2019,11,01,14,46,11.10
2019,11,01,14,47,11.10
2019,11,01,14,48,11.10
2019,11,01,14,49,11.20
2019,11,01,14,50,11.20
2019,11,01,14,51,11.20
2019,11,01,14,52,11.30
2019,11,01,14,53,11.30
2019,11,01,14,54,11.30
2019,11,01,14,55,11.40
2019,11,01,14,56,11.40
2019,11,01,14,57,11.40
2019,11,01,14,58,11.50
2019,11,01,14,59,11.50
2019,11,01,15,00,11.50
2019,11,01,15,01,11.50
2019,11,01,15,02,11.50
2019,11,01,15,03,11.60
2019,11,01,15,04,11.60
2019,11,01,15,05,11.60
2019,11,01,15,06,11.60
2019,11,01,15,07,11.60
2019,11,01,15,08,11.70
2019,11,01,15,09,11.70
2019,11,01,15,10,11.70
2019,11,01,15,11,11.70
2019,11,01,15,12,11.70
2019,11,01,15,13,11.70
2019,11,01,15,14,11.70
2019,11,01,15,15,11.70
2019,11,01,15,16,11.70
2019,11,01,15,17,11.70
2019,11,01,15,18,11.80
2019,11,01,15,19,11.80
2019,11,01,15,20,11.80
2019,11,01,15,21,11.80
2019,11,01,15,22,11.80
2019,11,01,15,23,11.70
2019,11,01,15,24,11.80
2019,11,01,15,25,11.80
2019,11,01,15,26,11.80
2019,11,01,15,27,11.80
2019,11,01,15,28,11.80
2019,11,01,15,29,11.80
2019,11,01,15,30,11.80
2019,11,01,15,31,11.80
2019,11,01,15,32,11.80
2019,11,01,15,33,11.70
2019,11,01,15,34,11.70
2019,11,01,15,35,11.60
2019,11,01,15,36,11.60
2019,11,01,15,37,11.60
2019,11,01,15,38,11.50
2019,11,01,15,39,11.50
2019,11,01,15,40,11.50
2019,11,01,15,41,11.40
2019,11,01,15,42,11.40
2019,11,01,15,43,11.40
2019,11,01,15,44,11.40
2019,11,01,15,45,11.40
2019,11,01,15,46,11.40
2019,11,01,15,47,11.40
2019,11,01,15,48,11.50
2019,11,01,15,49,11.50
2019,11,01,15,50,11.50
2019,11,01,15,51,11.50
2019,11,01,15,52,11.50
2019,11,01,15,53,11.40
2019,11,01,15,54,11.40
2019,11,01,15,55,11.40
2019,11,01,15,56,11.30
2019,11,01,15,57,11.30
2019,11,01,15,58,11.30
2019,11,01,15,59,11.40
2019,11,01,16,00,11.40
2019,11,01,16,01,11.40
2019,11,01,16,02,11.40
2019,11,01,16,03,11.40
2019,11,01,16,04,11.40
2019,11,01,16,05,11.40
2019,11,01,16,06,11.40
2019,11,01,16,07,11.40
2019,11,01,16,08,11.40
2019,11,01,16,09,11.40
2019,11,01,16,10,11.40
2019,11,01,16,11,11.30
2019,11,01,16,12,11.30
2019,11,01,16,13,11.30
2019,11,01,16,14,11.30
2019,11,01,16,15,11.30
2019,11,01,16,16,11.30
2019,11,01,16,17,11.30
2019,11,01,16,18,11.20
2019,11,01,16,19,11.20
2019,11,01,16,20,11.20
2019,11,01,16,21,11.20
2019,11,01,16,22,11.20
2019,11,01,16,23,11.20
2019,11,01,16,24,11.10
2019,11,01,16,25,11.10
2019,11,01,16,26,11.10
2019,11,01,16,27,11.00
2019,11,01,16,28,10.90
2019,11,01,16,29,10.90
2019,11,01,16,30,10.90
2019,11,01,16,31,10.90
2019,11,01,16,32,10.90
2019,11,01,16,33,10.90
2019,11,01,16,34,10.90
2019,11,01,16,35,10.90
2019,11,01,16,36,10.90
2019,11,01,16,37,10.90
2019,11,01,16,38,10.90
2019,11,01,16,39,10.90
2019,11,01,16,40,10.90
2019,11,01,16,41,10.90
2019,11,01,16,42,10.90
2019,11,01,16,43,10.90
2019,11,01,16,44,11.00
2019,11,01,16,45,11.00
2019,11,01,16,46,11.00
2019,11,01,16,47,11.00
2019,11,01,16,48,11.00
2019,11,01,16,49,11.00
2019,11,01,16,50,11.00
2019,11,01,16,51,11.00
2019,11,01,16,52,11.00
2019,11,01,16,53,10.90
2019,11,01,16,54,10.90
2019,11,01,16,55,10.90
2019,11,01,16,56,10.90
2019,11,01,16,57,10.80
2019,11,01,16,58,10.80
2019,11,01,16,59,10.80
2019,11,01,17,00,10.80
2019,11,01,17,01,10.80
2019,11,01,17,02,10.80
2019,11,01,17,03,10.70
2019,11,01,17,04,10.70
2019,11,01,17,05,10.60
2019,11,01,17,06,10.60
2019,11,01,17,07,10.50
2019,11,01,17,08,10.50
2019,11,01,17,09,10.40
2019,11,01,17,10,10.40
2019,11,01,17,11,10.40
2019,11,01,17,12,10.40
2019,11,01,17,13,10.30
2019,11,01,17,14,10.30
2019,11,01,17,15,10.30
2019,11,01,17,16,10.30
2019,11,01,17,17,10.30
2019,11,01,17,18,10.30
2019,11,01,17,19,10.20
2019,11,01,17,20,10.20
2019,11,01,17,21,10.20
2019,11,01,17,22,10.20
2019,11,01,17,23,10.20
2019,11,01,17,24,10.10
2019,11,01,17,25,10.10
2019,11,01,17,26,10.10
2019,11,01,17,27,10.10
2019,11,01,17,28,10.10
2019,11,01,17,29,10.00
2019,11,01,17,30,10.00
2019,11,01,17,31,10.00
2019,11,01,17,32,9.90
2019,11,01,17,33,9.90
2019,11,01,17,34,9.90
2019,11,01,17,35,9.90
2019,11,01,17,36,9.90
2019,11,01,17,37,9.80
2019,11,01,17,38,9.80
2019,11,01,17,39,9.80
2019,11,01,17,40,9.80
2019,11,01,17,41,9.80
2019,11,01,17,42,9.80
2019,11,01,17,43,9.80
2019,11,01,17,44,9.70
2019,11,01,17,45,9.70
2019,11,01,17,46,9.70
2019,11,01,17,47,9.70
2019,11,01,17,48,9.70
2019,11,01,17,49,9.70
2019,11,01,17,50,9.70
2019,11,01,17,51,9.60
2019,11,01,17,52,9.60
2019,11,01,17,53,9.60
2019,11,01,17,54,9.60
2019,11,01,17,55,9.60
2019,11,01,17,56,9.60
2019,11,01,17,57,9.60
2019,11,01,17,58,9.50
2019,11,01,17,59,9.50
2019,11,01,18,00,9.50
2019,11,01,18,01,9.50
2019,11,01,18,02,9.50
2019,11,01,18,03,9.50
2019,11,01,18,04,9.40
2019,11,01,18,05,9.40
2019,11,01,18,06,9.40
2019,11,01,18,07,9.40
2019,11,01,18,08,9.40
2019,11,01,18,09,9.40
2019,11,01,18,10,9.40
2019,11,01,18,11,9.30
2019,11,01,18,12,9.30
2019,11,01,18,13,9.30
2019,11,01,18,14,9.30
2019,11,01,18,15,9.30
2019,11,01,18,16,9.30
2019,11,01,18,17,9.30
2019,11,01,18,18,9.30
2019,11,01,18,19,9.20
2019,11,01,18,20,9.20
2019,11,01,18,21,9.20
2019,11,01,18,22,9.20
2019,11,01,18,23,9.20
2019,11,01,18,24,9.20
2019,11,01,18,25,9.20
2019,11,01,18,26,9.10
2019,11,01,18,27,9.10
2019,11,01,18,28,9.10
2019,11,01,18,29,9.10
2019,11,01,18,30,9.10
2019,11,01,18,31,9.00
2019,11,01,18,32,9.00
2019,11,01,18,33,9.00
2019,11,01,18,34,9.00
2019,11,01,18,35,9.00
2019,11,01,18,36,8.90
2019,11,01,18,37,8.90
2019,11,01,18,38,8.90
2019,11,01,18,39,8.90
2019,11,01,18,40,8.90
2019,11,01,18,41,8.90
2019,11,01,18,42,8.90
2019,11,01,18,43,8.90
2019,11,01,18,44,8.80
2019,11,01,18,45,8.80
2019,11,01,18,46,8.80
2019,11,01,18,47,8.80
2019,11,01,18,48,8.80
2019,11,01,18,49,8.80
2019,11,01,18,50,8.70
2019,11,01,18,51,8.70
2019,11,01,18,52,8.70
2019,11,01,18,53,8.70
2019,11,01,18,54,8.70
2019,11,01,18,55,8.60
2019,11,01,18,56,8.60
2019,11,01,18,57,8.60
2019,11,01,18,58,8.60
2019,11,01,18,59,8.60
2019,11,01,19,00,8.60
2019,11,01,19,01,8.60
2019,11,01,19,02,8.60
2019,11,01,19,03,8.60
2019,11,01,19,04,8.50
2019,11,01,19,05,8.50
2019,11,01,19,06,8.50
2019,11,01,19,07,8.50
2019,11,01,19,08,8.40
2019,11,01,19,09,8.40
2019,11,01,19,10,8.40
2019,11,01,19,11,8.30
2019,11,01,19,12,8.30
2019,11,01,19,13,8.30
2019,11,01,19,14,8.30
2019,11,01,19,15,8.30
2019,11,01,19,16,8.30
2019,11,01,19,17,8.30
2019,11,01,19,18,8.30
2019,11,01,19,19,8.30
2019,11,01,19,20,8.30
2019,11,01,19,21,8.20
2019,11,01,19,22,8.20
2019,11,01,19,23,8.20
2019,11,01,19,24,8.20
2019,11,01,19,25,8.20
2019,11,01,19,26,8.20
2019,11,01,19,27,8.10
2019,11,01,19,28,8.10
2019,11,01,19,29,8.10
2019,11,01,19,30,8.10
2019,11,01,19,31,8.10
2019,11,01,19,32,8.00
2019,11,01,19,33,8.00
2019,11,01,19,34,8.00
2019,11,01,19,35,8.00
2019,11,01,19,36,7.90
2019,11,01,19,37,7.90
2019,11,01,19,38,7.90
2019,11,01,19,39,7.90
2019,11,01,19,40,7.90
2019,11,01,19,41,7.90
2019,11,01,19,42,7.90
2019,11,01,19,43,7.90
2019,11,01,19,44,7.90
2019,11,01,19,45,7.80
2019,11,01,19,46,7.80
2019,11,01,19,47,7.80
2019,11,01,19,48,7.80
2019,11,01,19,49,7.80
2019,11,01,19,50,7.80
2019,11,01,19,51,7.80
2019,11,01,19,52,7.80
2019,11,01,19,53,7.80
2019,11,01,19,54,7.80
2019,11,01,19,55,7.80
2019,11,01,19,56,7.70
2019,11,01,19,57,7.70
2019,11,01,19,58,7.70
2019,11,01,19,59,7.70
2019,11,01,20,00,7.70
2019,11,01,20,01,7.70
2019,11,01,20,02,7.70
2019,11,01,20,03,7.70
2019,11,01,20,04,7.70
2019,11,01,20,05,7.70
2019,11,01,20,06,7.70
2019,11,01,20,07,7.70
2019,11,01,20,08,7.60
2019,11,01,20,09,7.60
2019,11,01,20,10,7.60
2019,11,01,20,11,7.60
2019,11,01,20,12,7.60
2019,11,01,20,13,7.60
2019,11,01,20,14,7.60
2019,11,01,20,15,7.60
2019,11,01,20,16,7.50
2019,11,01,20,17,7.50
2019,11,01,20,18,7.50
2019,11,01,20,19,7.50
2019,11,01,20,20,7.60
2019,11,01,20,21,7.60
2019,11,01,20,22,7.60
2019,11,01,20,23,7.60
2019,11,01,20,24,7.60
2019,11,01,20,25,7.60
2019,11,01,20,26,7.60
2019,11,01,20,27,7.60
2019,11,01,20,28,7.60
2019,11,01,20,29,7.50
2019,11,01,20,30,7.50
2019,11,01,20,31,7.50
2019,11,01,20,32,7.40
2019,11,01,20,33,7.40
2019,11,01,20,34,7.40
2019,11,01,20,35,7.40
2019,11,01,20,36,7.40
2019,11,01,20,37,7.40
2019,11,01,20,38,7.40
2019,11,01,20,39,7.40
2019,11,01,20,40,7.40
2019,11,01,20,41,7.40
2019,11,01,20,42,7.40
2019,11,01,20,43,7.40
2019,11,01,20,44,7.40
2019,11,01,20,45,7.40
2019,11,01,20,46,7.40
2019,11,01,20,47,7.40
2019,11,01,20,48,7.40
2019,11,01,20,49,7.40
2019,11,01,20,50,7.40
2019,11,01,20,51,7.40
2019,11,01,20,52,7.40
2019,11,01,20,53,7.40
2019,11,01,20,54,7.40
2019,11,01,20,55,7.40
2019,11,01,20,56,7.40
2019,11,01,20,57,7.40
2019,11,01,20,58,7.40
2019,11,01,20,59,7.30
2019,11,01,21,00,7.30
2019,11,01,21,01,7.30
2019,11,01,21,02,7.30
2019,11,01,21,03,7.30
2019,11,01,21,04,7.30
2019,11,01,21,05,7.30
2019,11,01,21,06,7.40
2019,11,01,21,07,7.40
2019,11,01,21,08,7.40
2019,11,01,21,09,7.50
2019,11,01,21,10,7.50
2019,11,01,21,11,7.40
2019,11,01,21,12,7.40
2019,11,01,21,13,7.40
2019,11,01,21,14,7.40
2019,11,01,21,15,7.30
2019,11,01,21,16,7.30
2019,11,01,21,17,7.30
2019,11,01,21,18,7.30
2019,11,01,21,19,7.40
2019,11,01,21,20,7.40
2019,11,01,21,21,7.40
2019,11,01,21,22,7.50
2019,11,01,21,23,7.50
2019,11,01,21,24,7.50
2019,11,01,21,25,7.50
2019,11,01,21,26,7.50
2019,11,01,21,27,7.50
2019,11,01,21,28,7.50
2019,11,01,21,29,7.40
2019,11,01,21,30,7.40
2019,11,01,21,31,7.30
2019,11,01,21,32,7.30
2019,11,01,21,33,7.30
2019,11,01,21,34,7.20
2019,11,01,21,35,7.20
2019,11,01,21,36,7.20
2019,11,01,21,37,7.20
2019,11,01,21,38,7.20
2019,11,01,21,39,7.20
2019,11,01,21,40,7.10
2019,11,01,21,41,7.10
2019,11,01,21,42,7.10
2019,11,01,21,43,7.10
2019,11,01,21,44,7.10
2019,11,01,21,45,7.10
2019,11,01,21,46,7.10
2019,11,01,21,47,7.10
2019,11,01,21,48,7.10
2019,11,01,21,49,7.10
2019,11,01,21,50,7.10
2019,11,01,21,51,7.00
2019,11,01,21,52,7.00
2019,11,01,21,53,7.00
2019,11,01,21,54,6.90
2019,11,01,21,55,6.90
2019,11,01,21,56,6.90
2019,11,01,21,57,6.90
2019,11,01,21,58,6.90
2019,11,01,21,59,6.90
2019,11,01,22,00,6.90
2019,11,01,22,01,6.90
2019,11,01,22,02,6.80
2019,11,01,22,03,6.80
2019,11,01,22,04,6.80
2019,11,01,22,05,6.80
2019,11,01,22,06,6.80
2019,11,01,22,07,6.80
2019,11,01,22,08,6.80
2019,11,01,22,09,6.80
2019,11,01,22,10,6.80
2019,11,01,22,11,6.80
2019,11,01,22,12,6.70
2019,11,01,22,13,6.70
2019,11,01,22,14,6.70
2019,11,01,22,15,6.70
2019,11,01,22,16,6.70
2019,11,01,22,17,6.70
2019,11,01,22,18,6.70
2019,11,01,22,19,6.70
2019,11,01,22,20,6.70
2019,11,01,22,21,6.80
2019,11,01,22,22,6.80
2019,11,01,22,23,6.80
2019,11,01,22,24,6.80
2019,11,01,22,25,6.80
2019,11,01,22,26,6.80
2019,11,01,22,27,6.80
2019,11,01,22,28,6.80
2019,11,01,22,29,6.80
2019,11,01,22,30,6.80
2019,11,01,22,31,6.80
2019,11,01,22,32,6.80
2019,11,01,22,33,6.80
2019,11,01,22,34,6.80
2019,11,01,22,35,6.80
2019,11,01,22,36,6.80
2019,11,01,22,37,6.80
2019,11,01,22,38,6.80
2019,11,01,22,39,6.80
2019,11,01,22,40,6.80
2019,11,01,22,41,6.70
2019,11,01,22,42,6.70
2019,11,01,22,43,6.70
2019,11,01,22,44,6.70
2019,11,01,22,45,6.70
2019,11,01,22,46,6.70
2019,11,01,22,47,6.70
2019,11,01,22,48,6.70
2019,11,01,22,49,6.70
2019,11,01,22,50,6.70
2019,11,01,22,51,6.70
2019,11,01,22,52,6.80
2019,11,01,22,53,6.80
2019,11,01,22,54,6.80
2019,11,01,22,55,6.80
2019,11,01,22,56,6.80
2019,11,01,22,57,6.90
2019,11,01,22,58,6.90
2019,11,01,22,59,6.90
2019,11,01,23,00,7.00
2019,11,01,23,01,7.00
2019,11,01,23,02,7.00
2019,11,01,23,03,7.00
2019,11,01,23,04,7.00
2019,11,01,23,05,7.00
2019,11,01,23,06,7.00
2019,11,01,23,07,7.00
2019,11,01,23,08,7.00
2019,11,01,23,09,7.00
2019,11,01,23,10,7.00
2019,11,01,23,11,6.90
2019,11,01,23,12,6.90
2019,11,01,23,13,6.90
2019,11,01,23,14,6.90
2019,11,01,23,15,6.90
2019,11,01,23,16,6.90
2019,11,01,23,17,7.00
2019,11,01,23,18,7.00
2019,11,01,23,19,7.00
2019,11,01,23,20,7.00
2019,11,01,23,21,7.00
2019,11,01,23,22,7.00
2019,11,01,23,23,7.00
2019,11,01,23,24,7.00
2019,11,01,23,25,7.00
2019,11,01,23,26,7.00
2019,11,01,23,27,7.00
2019,11,01,23,28,7.00
2019,11,01,23,29,7.00
2019,11,01,23,30,7.00
2019,11,01,23,31,6.90
2019,11,01,23,32,6.90
2019,11,01,23,33,6.90
2019,11,01,23,34,7.00
2019,11,01,23,35,7.00
2019,11,01,23,36,7.00
2019,11,01,23,37,7.00
2019,11,01,23,38,7.00
2019,11,01,23,39,6.90
2019,11,01,23,40,7.00
2019,11,01,23,41,7.00
2019,11,01,23,42,7.00
2019,11,01,23,43,7.00
2019,11,01,23,44,7.00
2019,11,01,23,45,7.00
2019,11,01,23,46,7.00
2019,11,01,23,47,7.00
2019,11,01,23,48,7.00
2019,11,01,23,49,7.00
2019,11,01,23,50,6.90
2019,11,01,23,51,6.90
2019,11,01,23,52,6.90
2019,11,01,23,53,6.90
2019,11,01,23,54,6.90
2019,11,01,23,55,7.00
2019,11,01,23,56,7.00
2019,11,01,23,57,7.00
2019,11,01,23,58,7.00
2019,11,01,23,59,7.00
